TimeCST,TemperatureF,Dew PointF,Humidity,Sea Level PressureIn,VisibilityMPH,Wind Direction,Wind SpeedMPH,Gust SpeedMPH,PrecipitationIn,Events,Conditions,WindDirDegrees,DateUTC
12:54 AM,26.1,10.9,53,30.29,10.0,West,4.6,-,N/A,,Clear,270,2011-11-17 06:54:00
1:54 AM,25.0,10.9,55,30.30,10.0,West,4.6,-,N/A,,Clear,280,2011-11-17 07:54:00
2:54 AM,24.1,10.0,55,30.30,10.0,West,4.6,-,N/A,,Clear,270,2011-11-17 08:54:00
3:54 AM,24.8,10.4,54,30.26,10.0,WNW,3.5,-,N/A,,Clear,290,2011-11-17 09:54:00
4:54 AM,23.0,10.9,60,30.30,10.0,SW,4.6,-,N/A,,Clear,230,2011-11-17 10:54:00
5:54 AM,21.2,10.4,63,30.26,10.0,Calm,Calm,-,N/A,,Clear,0,2011-11-17 11:54:00
6:54 AM,21.0,10.0,63,30.30,10.0,WSW,4.6,-,N/A,,Clear,240,2011-11-17 12:54:00
7:54 AM,23.0,12.0,63,30.32,10.0,WSW,4.6,-,N/A,,Clear,250,2011-11-17 13:54:00
8:54 AM,28.4,14.0,55,30.28,10.0,West,5.8,-,N/A,,Clear,270,2011-11-17 14:54:00
9:54 AM,32.0,16.0,52,30.30,10.0,WSW,11.5,-,N/A,,Clear,240,2011-11-17 15:54:00
10:54 AM,39.9,17.1,40,30.27,10.0,WSW,13.8,-,N/A,,Clear,240,2011-11-17 16:54:00
11:54 AM,45.0,18.0,34,30.23,10.0,WSW,15.0,-,N/A,,Clear,250,2011-11-17 17:54:00
12:54 PM,46.0,18.0,33,30.20,10.0,SW,13.8,-,N/A,,Clear,230,2011-11-17 18:54:00
1:54 PM,46.0,16.0,30,30.17,10.0,WSW,13.8,-,N/A,,Partly Cloudy,240,2011-11-17 19:54:00
2:54 PM,46.0,19.0,34,30.16,10.0,SSW,18.4,-,N/A,,Partly Cloudy,210,2011-11-17 20:54:00
3:54 PM,45.0,17.1,33,30.14,10.0,SW,13.8,-,N/A,,Scattered Clouds,230,2011-11-17 21:54:00
4:54 PM,41.0,18.0,40,30.12,10.0,SSW,9.2,-,N/A,,Scattered Clouds,200,2011-11-17 22:54:00
5:54 PM,37.9,18.0,45,30.12,10.0,South,6.9,-,N/A,,Partly Cloudy,180,2011-11-17 23:54:00
6:54 PM,37.0,19.0,48,30.11,10.0,South,9.2,-,N/A,,Clear,170,2011-11-18 00:54:00
7:54 PM,36.0,19.9,52,30.08,10.0,South,11.5,-,N/A,,Clear,170,2011-11-18 01:54:00
8:54 PM,35.1,19.9,54,30.06,10.0,South,11.5,-,N/A,,Clear,170,2011-11-18 02:54:00
9:54 PM,37.0,21.0,52,30.05,10.0,South,12.7,-,N/A,,Clear,190,2011-11-18 03:54:00
10:54 PM,37.0,21.9,54,30.01,10.0,South,15.0,-,N/A,,Clear,190,2011-11-18 04:54:00
11:54 PM,36.0,23.0,59,29.99,10.0,South,12.7,-,N/A,,Partly Cloudy,180,2011-11-18 05:54:00